CZ-3C DEB, 40863

Orbit data source: Space-Track

CZ-3C DEB, 40863 is space debris in HEO originally from a launch on Fri, 24 Feb 2012 UTC launched from the Xichang Space Center, China (XSC). Debris objects in space refer to the collection of defunct objects orbiting the Earth. Examples of debris include non-operational satellites, rocket bodies, and fragments generated from explosions, collisions, or faulty payload assembly.

Loading next visibility...
Identifier
40863, 2012-008AD
Orbit
HEO
Country
Flag of CNCN / PRC
Related business
Manufacturer
CALT
Mission
Spacecraft
Bus & Motor
Unknown
Mass
Unknown
Launch date (UTC)
2012-02-24 (14 years ago)
Launch vehicle
Unknown
Launch site
Xichang Space Center, China (XSC)
Object type
Payload
Rocket body
Debris
Shape & HBR
Unknown shape, 0.2 m
Radar Cross Section
Medium (>0.1 m² and <1 m²)

Expand to show TLE details & history
Last TLE update: 2 days ago

TLE from 2 days ago
0 CZ-3C DEB
1 40863U 12008AD  25293.23150063 -.00000233  00000-0  00000-0 0  9992
2 40863  20.8567 265.4345 7014360 110.8323 333.1629  2.20826053 86930
Epoch: 2025-10-20T05:33Z
TLE epoch observation values (Epoch: 2025-10-20T05:33:21.654Z)
Latitude
-0.00002°
Longitude
152.98622°
Altitude
10,469.856 km
Speed
5.596 km/s
True Right ascension
17h 41m 03s
True Declination
0° 00' 00"
Sunlit
Object was in daylight at epoch
Visualization orbit readout
Latitude
Unknown
Longitude
Unknown
Altitude
Unknown
Speed
Unknown
Apparent Right ascension
Unknown
Apparent Declination
Unknown
Sunlit
N/A
Visualization observer readout
Local Sidereal Time
15:34:17
Azimuth
Unknown
Elevation
Unknown
Doppler factor
Unknown
Orbital elements
Apogee altitude
36,010.86 km
Perigee altitude
1,060.185 km
Semi-major axis
24,913.659 km
Eccentricity
0.70144
Inclination
20.8567°
RAAN
265.4345°
Arg. of periapsis
110.8323°
True anomaly
249.25938°
Mean anomaly
333.1629°
Eccentric anomaly
297.5215°
Mean motion
0.55193 °/min
Orbital period
652.25 mins
BSTAR
0
Loading maneuver chart data...
Computing Atmospheric mass density...
Loading historical data...
Loading historical data...
Loading historical data...
Loading historical data...
Loading historical data...
Loading historical data...
Loading historical data...

Documentation

Showing up to 5 results
|